Simultaneous Nadir Overpasses (SNOs) Predictions

Prediction of SNOs between NOAA-19 and NPP Satellite Orbit:

Table of predicted SNOs for the next 14.0 days since TLE Epoch: 2/28/2014
Index Date (NOAA-19) Time (NOAA-19) Lat,Lon (NOAA-19) SZA (NOAA-19 ) Date (NPP) Time (NPP) Lat,Lon (NPP) SZA (NPP ) Distance(km) Time Diff (sec)
1 03/05/2014 14:03:18 80.99, -84.77 90.95 03/05/2014 14:04:31 81.00, -84.94 90.93 2.97 73
2 03/05/2014 14:54:22 -80.98, 82.89 89.13 03/05/2014 14:55:15 -80.99, 82.77 89.15 2.15 53
3 03/05/2014 15:45:21 80.99,-109.95 90.87 03/05/2014 15:46:00 80.99,-109.97 90.85 0.33 39
4 03/05/2014 16:36:25 -80.97, 57.72 89.21 03/05/2014 16:36:44 -80.97, 57.74 89.23 0.49 19
5 03/05/2014 17:27:24 80.98,-135.13 90.80 03/05/2014 17:27:29 80.97,-135.00 90.77 2.32 5
6 03/05/2014
